RH
41 35 29 23 19 16 15 14 14 14 14 13 11 9 8 7 7 8 8 8 8 8 7 7 6 6 6 5 5 5 4 4 3 3 2 2 2 3 20 22 26 30 31
44 37 30 24 20 17 16 15 16 15 14 13 11 10 9 8 8 9 9 10 10 9 9 8 8 7 7 7 6 6 5 5 5 5 5 5 3 11 3 3 4 5 6
45 39 32 26 22 18 17 16 16 16 15 14 12 11 11 10 10 10 11 12 12 12 12 11 10 10 10 9 9 8 7 7 7 6 8 18 32 7 5 3 3 2 2
45 39 34 28 24 22 20 19 18 18 17 16 14 14 14 13 13 12 13 14 15 15 15 15 14 13 13 12 12 11 10 10 9 8 8 10 16 28 41 12 5 4 3
44 38 32 29 26 23 21 20 20 20 19 19 17 16 16 17 16 15 15 16 17 18 19 19 18 17 17 16 16 14 13 12 11 10 10 8 11 21 63 56 20 6 6
43 38 35 32 28 25 23 22 22 22 22 21 20 19 19 20 20 20 19 19 19 21 23 23 23 22 22 21 20 18 16 14 13 12 15 18 20 17 43 75 34 24 18
46 41 39 34 29 26 25 25 24 24 24 24 23 22 22 22 23 24 25 25 25 25 25 26 28 28 28 27 25 22 19 17 15 13 14 15 20 26 27 45 69 80 22
46 42 37 34 32 30 28 28 28 28 28 27 27 28 30 32 33 34 34 33 32 31 31 30 32 33 33 32 30 27 23 20 18 16 15 15 16 20 26 40 78 88 77
45 41 38 36 35 34 33 33 34 34 35 37 40 43 46 49 50 51 51 48 45 42 39 38 37 37 37 37 34 31 27 24 21 19 18 17 17 18 20 25 39 97 93
44 42 40 39 40 40 39 39 41 44 48 52 56 59 62 64 64 62 58 56 54 52 50 47 46 45 44 41 38 35 31 27 24 22 20 19 18 18 18 21 25 36 90
45 43 41 42 43 44 44 46 50 54 61 66 68 71 73 71 68 65 61 58 57 57 58 58 58 54 51 46 42 37 34 30 27 25 23 21 21 20 20 22 24 26 44
45 44 44 45 47 49 53 57 63 69 73 76 78 79 74 69 64 60 56 54 54 55 56 57 56 53 49 45 42 38 35 32 30 27 26 24 24 23 23 25 25 31 32
65 60 56 54 58 61 64 70 76 81 86 85 79 72 65 59 54 53 53 55 56 56 57 58 56 54 50 45 42 40 37 35 32 30 28 28 29 27 31 34 32 32 49
62 62 62 65 71 77 82 84 80 76 71 70 62 54 52 54 53 51 52 55 59 60 59 57 55 53 50 47 45 43 40 38 36 35 36 39 41 36 46 79 70 80 92
72 52 43 40 39 41 43 42 40 46 56 57 56 52 53 52 51 51 54 56 61 64 66 63 60 57 55 52 49 48 53 67 67 72 81 82 95 98 100 97 96 100 100
44 36 34 34 34 38 40 45 45 50 57 56 53 53 52 55 58 60 58 58 58 61 64 62 63 63 60 56 57 100 100 100 100 100 100 100 100 100 99 98 100 98 97
36 35 36 38 41 44 49 49 50 51 50 49 47 48 54 59 59 66 69 66 64 65 63 64 66 63 60 56 60 100 100 99 98 100 100 100 100 100 88 45 74 77 79
39 41 42 45 48 54 54 51 51 50 50 45 42 47 52 54 53 67 74 75 72 74 74 70 68 67 60 57 90 100 100 98 100 100 100 100 94 57 86 98 97 79 58
46 38 31 35 44 62 51 42 44 44 41 35 40 49 58 50 51 70 82 81 71 79 82 79 72 72 65 61 97 100 100 100 100 100 98 94 82 71 100 97 91 87 81
35 33 34 33 37 32 36 39 38 39 35 34 37 45 52 50 53 58 61 67 74 77 78 75 80 87 85 65 76 100 100 100 99 100 100 100 100 97 93 94 96 98 93
51 53 54 56 56 56 58 60 58 54 39 39 43 48 51 52 52 57 67 71 66 69 74 74 68 72 65 55 55 91 100 99 93 88 83 88 98 97 94 87 95 94 81
63 63 65 64 61 61 64 65 66 58 64 64 52 47 50 54 55 60 67 66 69 75 74 74 71 59 56 56 55 70 100 100 96 96 98 99 94 88 88 90 95 95 98
62 70 72 72 69 68 70 73 62 69 72 76 74 65 56 54 62 69 72 72 72 77 72 74 68 58 56 57 56 55 100 100 96 90 85 91 99 95 89 88 78 98 97
80 79 82 81 77 71 73 74 75 78 85 88 85 82 79 69 62 72 72 73 74 72 71 70 66 61 58 58 59 69 68 60 78 88 75 59 84 98 99 93 83 84 73
91 92 93 89 84 80 81 80 80 86 94 94 89 88 90 86 77 73 74 78 72 77 74 67 67 70 72 72 76 77 71 75 86 95 96 95 84 94 100 99 86 66 79
100 99 92 92 87 90 87 83 82 86 92 96 97 96 98 98 94 82 72 76 100 100 100 100 100 96 95 89 93 100 100 99 97 96 95 98 99 98 94 85 82 84 77
Wind_Speed
23 21 21 20 19 18 17 17 15 13 11 9 8 6 4 6 6 8 10 11 13 14 16 17 18 21 23 25 27 26 27 29 30 32 27 20 13 10 10 13 14 15 15
28 26 23 22 20 19 18 16 15 13 11 9 7 5 4 5 7 9 10 12 14 16 17 18 19 20 21 23 25 26 27 29 31 31 27 20 16 4 25 16 18 18 20
34 29 27 24 22 20 18 17 15 13 12 9 6 3 2 4 6 7 9 11 13 14 16 17 18 20 20 21 23 24 25 26 26 25 20 11 8 34 19 25 20 25 25
32 30 27 24 22 21 20 19 17 15 12 9 6 3 1 3 5 6 8 11 13 15 16 17 18 20 21 22 23 23 23 22 23 22 20 18 18 15 17 26 33 33 30
33 30 28 25 24 21 20 18 15 13 11 9 7 6 5 5 7 8 10 12 14 16 18 19 20 20 21 23 24 24 24 23 21 21 20 20 21 18 17 24 34 38 35
35 33 29 26 24 22 20 18 16 14 11 10 8 8 9 10 11 12 14 15 17 18 20 21 21 22 22 23 24 24 24 24 23 22 21 20 18 20 20 22 31 33 33
35 33 30 26 24 22 20 18 16 14 12 10 11 12 13 15 16 17 18 19 20 22 23 23 23 23 24 24 25 25 25 25 25 24 24 23 23 22 22 23 24 22 35
29 30 28 25 22 20 19 17 14 13 12 12 13 14 15 17 19 20 22 23 24 25 26 26 26 26 26 26 26 26 27 27 27 26 26 25 25 25 24 24 22 25 20
26 27 26 22 21 20 18 16 14 13 13 14 14 15 17 19 20 22 23 24 25 26 27 28 29 29 28 28 28 28 28 29 29 28 28 27 26 26 26 27 25 20 23
24 25 23 21 19 18 16 16 15 15 15 16 17 18 20 21 23 24 25 26 26 26 27 28 29 30 30 30 30 30 29 30 30 30 29 29 28 27 27 28 28 27 24
23 23 22 19 18 18 17 17 17 17 17 19 20 21 22 23 25 26 26 27 28 28 29 30 30 31 31 31 31 31 31 31 30 30 29 29 29 29 29 29 29 30 28
17 17 17 17 17 18 18 17 18 19 20 22 23 24 25 26 27 28 28 29 29 29 30 31 31 31 31 31 31 31 30 30 31 30 30 29 28 28 28 29 30 31 31
11 12 14 15 16 17 18 19 20 21 22 24 25 26 28 29 29 29 28 28 29 29 29 30 30 30 30 30 30 30 30 29 29 29 29 29 28 29 29 29 31 30 30
6 4 5 8 11 14 17 18 20 22 25 27 29 29 28 28 28 27 28 28 28 29 29 28 29 29 29 29 29 29 29 29 29 29 29 29 28 29 28 26 28 31 33
5 6 8 11 14 16 18 20 22 25 26 27 27 27 27 28 28 29 28 29 29 30 29 30 30 29 29 29 28 26 26 27 27 27 27 27 26 26 26 29 33 33 33
6 7 11 14 16 18 20 21 24 24 25 28 30 29 30 30 29 29 29 30 30 29 29 30 30 31 30 29 26 24 27 27 28 28 27 27 26 28 30 30 30 31 35
9 13 17 19 19 21 23 24 25 27 28 29 30 31 31 31 31 30 30 31 31 30 30 30 31 32 32 30 27 24 26 28 28 28 28 30 30 28 31 34 33 34 35
15 19 20 21 22 24 25 27 26 28 30 32 33 33 33 33 33 32 32 32 32 32 31 32 32 33 32 29 26 24 25 29 30 31 30 30 32 34 29 30 32 34 35
20 23 24 26 24 26 30 31 31 32 33 34 34 32 32 33 31 32 32 33 33 33 33 33 34 34 34 30 26 24 25 28 29 30 30 30 32 32 28 30 34 37 40
30 32 30 30 29 30 31 33 33 32 34 33 32 31 32 33 33 34 35 34 32 34 34 35 33 32 34 33 30 27 27 30 30 28 27 27 28 30 30 32 36 40 42
33 33 32 32 31 30 29 32 33 34 33 31 30 30 31 32 32 32 32 33 34 34 35 36 35 35 35 34 30 27 27 29 30 29 29 29 27 28 31 33 36 39 38
34 33 34 34 32 30 30 33 34 31 30 29 29 30 30 30 31 31 32 32 32 34 35 35 35 36 34 31 29 26 26 26 28 31 33 32 32 32 31 32 35 37 38
37 34 34 34 33 31 30 33 32 29 29 29 29 30 30 30 30 31 32 31 31 33 34 35 36 35 31 30 26 24 23 25 28 30 30 28 31 33 34 33 33 32 31
38 35 34 35 35 32 31 32 31 29 29 30 30 29 30 30 29 30 31 31 32 33 34 34 35 33 30 25 20 19 21 22 23 23 25 27 29 31 32 30 31 33 35
36 34 35 36 36 33 31 29 29 28 30 31 30 30 30 30 29 30 30 31 32 31 32 32 29 26 25 23 22 23 21 23 30 27 28 27 30 27 25 29 34 35 34
34 34 34 34 33 31 31 29 27 26 28 30 30 30 28 28 28 28 28 25 26 26 27 29 31 34 33 30 26 27 28 26 23 25 28 24 23 29 31 33 34 34 35
Wind_Direction
189 187 184 182 179 175 173 172 171 169 162 154 138 123 102 79 56 39 29 19 13 7 3 2 360 356 354 354 350 348 347 344 343 340 336 336 323 282 267 277 281 278 281
192 188 185 183 180 180 175 173 171 170 164 157 149 130 93 62 31 22 12 6 1 359 356 354 352 351 349 346 344 344 345 347 349 353 353 347 339 254 319 311 310 305 303
192 187 186 185 183 183 181 180 179 176 174 172 164 141 81 34 14 359 353 350 349 347 344 342 340 339 337 336 337 336 337 338 341 347 356 350 324 331 317 319 318 320 320
197 191 187 186 186 185 185 186 185 184 182 181 176 173 280 323 328 329 331 331 329 328 326 325 325 325 325 325 326 327 327 327 327 329 334 336 330 329 319 319 324 325 325
198 195 194 192 189 190 192 192 193 194 197 202 211 229 263 286 297 302 305 305 306 308 309 310 311 311 312 313 314 314 315 316 316 318 317 317 322 324 312 314 321 322 325
201 198 194 191 192 193 196 198 201 206 213 221 236 254 268 278 282 282 283 285 289 292 295 295 295 297 298 299 301 302 303 304 305 306 308 310 309 309 311 308 316 318 323
198 195 190 189 193 197 200 204 208 215 226 240 255 265 271 276 281 285 288 290 289 288 287 287 287 287 289 290 291 292 294 294 293 294 296 299 302 303 303 304 307 307 314
198 193 192 194 196 202 207 211 218 228 237 249 262 273 281 287 292 294 294 294 293 292 290 288 287 287 287 288 288 288 288 288 287 286 287 288 292 296 300 302 303 306 304
191 191 192 196 202 206 210 217 229 241 252 264 274 283 290 294 296 296 297 296 295 292 289 288 287 286 286 285 285 284 283 282 282 282 283 283 285 288 293 297 300 295 300
186 189 193 201 207 211 218 228 239 252 266 277 285 291 295 297 298 298 298 296 294 292 290 288 286 285 284 284 284 283 281 279 279 280 280 281 282 284 287 290 293 294 290
184 191 198 206 212 220 230 240 251 262 273 281 288 292 294 295 295 296 296 295 294 292 290 288 287 286 285 284 283 282 281 279 278 277 277 277 280 282 284 287 289 291 292
188 199 209 217 225 233 241 250 260 271 279 284 287 289 291 292 294 295 294 293 291 291 291 289 288 287 286 285 284 283 281 280 279 279 278 277 279 279 282 285 287 289 291
170 194 215 227 235 242 250 259 267 275 280 283 286 289 293 294 294 293 292 291 291 290 288 288 287 286 284 284 283 282 282 282 280 278 277 278 279 280 284 285 285 289 296
171 205 227 242 250 256 262 267 273 280 283 285 286 288 289 289 288 289 288 288 288 288 287 286 285 284 284 283 284 286 285 282 280 279 277 279 281 282 284 285 293 299 300
234 253 261 262 262 264 270 274 277 278 280 282 282 284 285 286 288 288 290 290 288 287 287 286 285 285 284 284 286 285 284 282 281 280 280 280 279 279 282 287 288 286 285
256 266 275 279 276 273 272 274 277 279 280 281 283 285 285 286 287 288 289 287 286 287 285 283 283 282 282 283 282 279 279 278 277 278 279 279 276 274 277 277 277 277 278
277 282 284 280 270 272 276 276 281 282 282 283 283 282 283 283 284 284 283 283 285 286 284 283 283 283 284 285 285 280 277 278 277 275 274 276 276 276 279 283 280 276 274
291 292 289 282 278 276 274 283 283 282 283 283 280 279 280 281 281 277 277 278 282 283 284 284 284 285 285 288 285 280 276 271 270 272 273 274 278 283 284 286 286 289 292
290 295 299 296 288 276 283 289 287 284 282 281 278 278 279 282 278 272 273 278 280 278 279 282 284 285 285 289 284 281 279 274 272 272 273 274 280 285 284 284 285 287 287
301 299 299 294 287 287 290 287 284 283 281 281 282 280 279 278 274 273 273 276 274 275 277 279 279 279 283 286 284 278 274 274 276 278 277 275 275 282 282 280 280 280 283
298 297 294 291 288 289 287 283 283 281 285 285 282 279 278 278 275 274 271 273 275 273 275 277 279 281 284 286 284 278 273 272 275 276 280 280 281 278 279 279 277 278 283
305 302 298 296 296 293 289 287 285 289 287 284 280 277 277 276 274 273 272 275 274 274 276 278 279 282 284 284 283 279 269 268 268 273 279 279 280 283 281 279 278 278 283
300 301 297 296 293 293 291 289 292 292 287 284 280 278 277 276 272 270 273 275 273 274 276 277 281 283 284 285 282 276 268 264 265 270 275 279 282 283 280 277 280 283 286
298 299 295 291 291 293 291 290 293 292 288 285 284 282 279 279 273 270 272 272 272 274 276 278 279 282 284 283 281 279 272 267 263 265 282 281 281 282 284 284 285 291 293
296 296 292 290 290 292 290 290 288 288 285 285 284 281 280 279 277 275 274 272 272 273 275 276 279 281 283 288 292 284 276 273 280 285 282 288 290 285 283 288 293 294 293
296 292 290 289 291 290 288 287 287 284 282 281 280 281 283 283 282 280 279 272 270 270 269 270 275 284 286 290 284 277 276 281 284 286 285 278 279 289 293 294 294 294 295